This is the latest recevied weather packets stored in our database for station/object K0SDS. If no packets are shown the sender has not sent any weather packets the latest 10 day(s).
| Time | Temp. | Humidity | Pressure | Rain* | Wind** | Luminosity | Snow |
|---|---|---|---|---|---|---|---|
| 1777492639 | 15.56° C | 55% | 1019.6 hPa | 0 mm | - | 291 W/m² | - |
| 1777492339 | 15.56° C | 54% | 1019.4 hPa | 0 mm | - | 296 W/m² | - |
| 1777492036 | 16.11° C | 55% | 1019.6 hPa | 0 mm | - | 353 W/m² | - |
| 1777491733 | 15.56° C | 54% | 1019.4 hPa | 0 mm | - | 361 W/m² | - |
| 1777491430 | 15.56° C | 53% | 1019.8 hPa | 0 mm | - | 330 W/m² | - |
| 1777491127 | 15.56° C | 56% | 1019.7 hPa | 0 mm | - | 285 W/m² | - |
| 1777490823 | 15.56° C | 55% | 1019.7 hPa | 0 mm | - | 328 W/m² | - |
| 1777490519 | 15.56° C | 58% | 1019.4 hPa | 0 mm | - | 355 W/m² | - |
| 1777490215 | 16.11° C | 53% | 1019.5 hPa | 0 mm | - | 356 W/m² | - |
| 1777489913 | 15.56° C | 56% | 1019.5 hPa | 0 mm | - | 386 W/m² | - |
| 1777489611 | 16.11° C | 56% | 1019.7 hPa | 0 mm | - | 407 W/m² | - |
| 1777489307 | 15.56° C | 55% | 1019.7 hPa | 0 mm | - | 453 W/m² | - |
| 1777489004 | 16.11° C | 56% | 1019.9 hPa | 0 mm | - | 477 W/m² | - |
| 1777488701 | 15.56° C | 54% | 1019.7 hPa | 0 mm | - | 507 W/m² | - |
| 1777488399 | 15.56° C | 54% | 1019.8 hPa | 0 mm | - | 393 W/m² | - |
| 1777488097 | 15.56° C | 53% | 1020 hPa | 0 mm | - | 522 W/m² | - |
| 1777487794 | 15.56° C | 52% | 1019.9 hPa | 0 mm | - | 459 W/m² | - |
| 1777487492 | 15.56° C | 55% | 1019.9 hPa | 0 mm | - | 392 W/m² | - |
| 1777487189 | 15° C | 58% | 1020 hPa | 0 mm | - | 438 W/m² | - |
| 1777486885 | 15.56° C | 60% | 1019.9 hPa | 0 mm | - | 397 W/m² | - |
| 1777486582 | 15.56° C | 58% | 1020.1 hPa | 0 mm | - | 388 W/m² | - |
| 1777486280 | 16.11° C | 55% | 1020.1 hPa | 0 mm | - | 326 W/m² | - |
| 1777485977 | 16.67° C | 55% | 1019.9 hPa | 0 mm | - | 358 W/m² | - |
| 1777485674 | 16.11° C | 57% | 1020.3 hPa | 0 mm | - | 757 W/m² | - |
| 1777485369 | 16.11° C | 57% | 1020.3 hPa | 0 mm | - | 801 W/m² | - |
* Rain latest hour (hover to see other rain measurements)
** Current wind speed in m/s (hover to see current wind gust speed)